Terminal Aerodrome Forecast
Issued by NWS

Home | Current Version | Previous Version | Graphics & Text | Print | Product List | Glossary Off
Versions: 1 2 3 4 5 6 7 8 9 10 11 12 13 14 15 16 17 18 19 20 21 22 23 24 25 26 27 28 29 30 31 32 33 34 35 36 37 38 39 40 41 42 43 44 45 46 47 48 49 50

000
FTUS43 KDDC 212320
TAFGCK
TAF
KGCK 212320Z 2200/2224 13009KT P6SM SCT025 OVC040
     FM220400 15011KT 4SM -SHRA OVC012
     FM221000 15011KT 3SM -SHRA BR OVC007
      TEMPO 2212/2215 2SM -SHRA BR OVC003
     FM221700 17016G23KT P6SM OVC015=

USA.gov is the U.S. government's official web portal to all federal, state and local government web resources and services.